Home > Weather > Bangui > Past weeks

Flag for Central African Republic Past Weather in Bangui, Central African Republic — Yesterday and Last 2 Weeks

Now
73 °F

Passing clouds.


Feels Like: 70 °F
Forecast: 72 / 81 °F
Wind: No wind

Location: Bangui Airport

Current Time: Jul 28, 2016 at 7:44:26 AM

Latest Report: Jul 28, 2016 at 7:00 AM


Visibility: 4 mi

Pressure: 29.92 "Hg

Humidity: 94%

Dew Point: 72 °F

Location of BanguiLocation

Past Weather in Bangui — Graph

°F

Bangui Temperature Yesterday

Maximum temperature yesterday: 84 °F (at 2:00 PM)
Minimum temperature yesterday: 70 °F (at 2:00 AM)
Average temperature yesterday: 76 °F

High & Low Weather Summary for the Past Weeks

 TemperatureHumidityPressure
High91 °F (Jul 22, 2:00 PM)100% (Jul 13, 6:00 AM)30.01 "Hg (Jul 13, 6:00 AM)
Low70 °F (Jul 24, 2:00 AM)55% (Jul 18, 4:00 PM)29.74 "Hg (Jul 25, 3:00 PM)
Average77 °F88%29.90 "Hg
* Reported Jul 13 6:00 AM — Jul 28 6:00 AM, Bangui, Weather by CustomWeather, © 2016

Note: Actual official high and low records may vary slightly from our data, if they occured in-between our weather recording intervals... More about our weather records

Advertising

Bangui Weather History for the Previous 24 Hours

Scroll right to see more
 ConditionsComfort  
Time TempWeatherWind HumidityBarometerVisibility
6:00 AM
Thu, Jul 28
72 °FPassing clouds.2 mph100%29.92 "Hg4 mi
5:00 AM72 °FPassing clouds.No wind100%29.92 "Hg4 mi
4:00 AM72 °FClear.No wind100%29.92 "Hg4 mi
3:00 AM72 °FClear.No wind100%29.89 "Hg4 mi
2:00 AM73 °FClear.No wind100%29.89 "Hg4 mi
1:00 AM73 °FClear.2 mph100%29.92 "Hg4 mi
12:00 AM73 °FClear.No wind100%29.92 "Hg4 mi
11:00 PM
Wed, Jul 27
75 °FClear.No wind94%29.92 "Hg4 mi
10:00 PM75 °FFog.No wind94%29.92 "Hg2 mi
9:00 PM77 °FFog.No wind94%29.92 "Hg2 mi
8:00 PM79 °FPassing clouds.No wind84%29.89 "Hg4 mi
7:00 PM79 °FPassing clouds.2 mph84%29.86 "Hg5 mi
6:00 PM81 °FScattered clouds.5 mph79%29.86 "HgN/A
5:00 PM84 °FScattered clouds.7 mph66%29.86 "HgN/A
4:00 PM84 °FPartly sunny.2 mph70%29.86 "HgN/A
3:00 PM84 °FScattered clouds.3 mph66%29.86 "HgN/A
2:00 PM84 °FScattered clouds.3 mph70%29.86 "HgN/A
1:00 PM81 °FScattered clouds.3 mph74%29.89 "HgN/A
12:00 PM81 °FPartly sunny.2 mph74%29.92 "HgN/A
11:00 AM79 °FPartly sunny.2 mph79%29.95 "HgN/A
10:00 AM77 °FPartly sunny.3 mph83%29.95 "HgN/A
9:00 AM77 °FPartly sunny.3 mph83%29.95 "HgN/A
8:00 AM72 °FScattered clouds.No wind94%29.95 "Hg5 mi
7:00 AM72 °FScattered clouds.No wind94%29.95 "Hg4 mi
Weather by CustomWeather, © 2016

See weather overviewHow to use our weather pages